Location: Newark
(35.7833°N, 139.8000°E)
Time: 13:42:41
(UTC+00:00)

N. Korean satellite - Visible Passes

Search period start: 23 October 2019 00:00
Search period end: 02 November 2019 00:00
Orbit: 455 x 508 km, 97.2° (Epoch: 22 October)

Date Brightness Start Highest point End Pass type
(mag) Time Alt. Az. Time Alt. Az. Time Alt. Az.
24 Oct 10.6 09:00:28 10° W 09:00:58 10° W 09:01:27 10° W visible
24 Oct 7.0 20:26:06 10° NNE 20:29:45 70° E 20:33:26 10° S visible
25 Oct 9.4 08:32:44 10° SSW 08:35:29 22° W 08:38:17 10° NW visible
25 Oct 8.9 20:01:09 10° NE 20:04:25 30° E 20:07:42 10° SSE visible
26 Oct 10.2 19:36:55 10° ENE 19:39:00 14° E 19:41:05 10° SE visible
28 Oct 10.1 08:51:16 10° WSW 08:53:00 13° W 08:54:44 10° WNW visible
28 Oct 7.6 20:18:16 10° NNE 20:21:54 54° E 20:25:31 10° S visible
29 Oct 8.9 08:24:30 10° SSW 08:27:32 29° W 08:30:37 10° NW visible
29 Oct 9.3 19:53:27 10° NE 19:56:31 24° E 19:59:35 10° SSE visible
30 Oct 10.4 19:29:44 10° ENE 19:31:03 12° E 19:32:21 10° ESE visible
31 Oct 6.6 20:35:35 10° N 20:39:18 84° W 20:43:01 10° SSW visible
01 Nov 9.9 08:42:40 10° SW 08:45:01 17° W 08:47:22 10° NW visible
01 Nov 8.1 20:10:26 10° NNE 20:13:58 41° E 20:17:30 10° S visible
